Regional Weather Roundup
Issued by NWS Upton, NY

Current Version | Previous Version | Text Only | Print | Product List | Glossary Off
Versions: 1 2 3 4 5 6 7 8 9 10 11 12 13 14 15 16 17 18 19 20 21 22 23 24 25 26 27
000 ASUS41 KOKX 251805 RWROKX REGIONAL WEATHER ROUNDUP NATIONAL WEATHER SERVICE NEW YORK NY 200 PM EDT SAT OCT 25 2014 NOTE: "FAIR" INDICATES FEW OR NO CLOUDS BELOW 12,000 FEET WITH NO SIGNIFICANT WEATHER AND/OR OBSTRUCTIONS TO VISIBILITY. NYZ071-072-176-178-NJZ106-104-251900- NEW YORK CITY METRO AREA CITY SKY/WX TMP DP RH WIND PRES REMARKS CENTRAL PARK SUNNY 65 41 41 VRB5 29.75F LAGUARDIA APRT PTSUNNY 64 40 41 SW8 29.72F KENNEDY INTL MOSUNNY 65 41 41 SW14 29.74F NEWARK/LIBERTY MOSUNNY 68 42 38 SW8 29.73F BRNX BOT. GARD N/A 64 41 42 SE3 29.72F TETERBORO SUNNY 66 41 40 W7 29.72F $$ NYZ177-179-078>081-251900- LONG ISLAND NEW YORK CITY SKY/WX TMP DP RH WIND PRES REMARKS FARMINGDALE SUNNY 65 43 44 W9G18 29.73F ISLIP MOSUNNY 65 44 46 W10 29.71F SHIRLEY SUNNY 65 44 46 NW9 29.72F WESTHAMPTON SUNNY 64 45 49 SW8 29.73F MONTAUK POINT N/A 62 43 49 W8 29.72F $$ NYZ052-065-067-251900- HUDSON VALLEY CITY SKY/WX TMP DP RH WIND PRES REMARKS WHITE PLAINS MOSUNNY 64 42 44 NW13 29.71F NEWBURGH MOSUNNY 61 45 55 NW12G23 29.74F MONTGOMERY PTSUNNY 64 42 44 W8 29.71F POUGHKEEPSIE MOSUNNY 65 43 44 SW15 29.71F ALBANY PTSUNNY 60 45 57 VRB5 29.68F $$ NJZ001-105-106-008-010-013-015-019>022-104-251900- NEW JERSEY CITY SKY/WX TMP DP RH WIND PRES REMARKS NEWARK/LIBERTY MOSUNNY 68 42 38 SW8 29.73F TETERBORO SUNNY 66 41 40 W7 29.72F CALDWELL SUNNY 65 39 38 NW9 29.73F MORRISTOWN SUNNY 66 41 39 SW12G17 29.73F SOMERVILLE SUNNY 67 42 40 VRB3G17 29.72F SUSSEX MOSUNNY 67 42 40 VRB6G21 29.73F ANDOVER N/A 65 41 41 VRB7 29.74F TRENTON SUNNY 67 42 40 W14G20 29.75F MILLVILLE SUNNY 67 43 41 W13 29.80F ATLANTIC CITY SUNNY 68 44 42 W12 29.78F WRIGHTSTOWN SUNNY 68 44 42 W10 29.74F HAZE TOMS RIVER SUNNY 68 43 40 W8 29.76F BELMAR SUNNY 66 43 42 W12 29.74F $$ PAZ047>061-062-071-251900- EASTERN PENNSYLVANIA CITY SKY/WX TMP DP RH WIND PRES REMARKS PHILADELPHIA MOSUNNY 69 44 40 SW17G28 29.78F ALLENTOWN PTSUNNY 67 42 40 W17 29.76F SCRANTON MOSUNNY 63 42 46 SW12G17 29.74F $$ CTZ002-004>006-009-010-012-RIZ004-006-007-MAZ004-011-015-251900- SOUTHERN NEW ENGLAND IN CT CITY SKY/WX TMP DP RH WIND PRES REMARKS BRADLEY INTL PTSUNNY 67 42 40 W14G21 29.66F HARTFORD MOSUNNY 66 42 41 VRB7 29.67F DANBURY MOSUNNY 63 41 44 W9 29.71F WTRBRY/OXFORD SUNNY 61 41 48 W7G17 29.70F BRIDGEPORT SUNNY 65 49 56 SW12 29.70F MERIDEN MOSUNNY 65 39 38 W10 29.69F NEW HAVEN SUNNY 64 48 56 SW8 29.70F CHESTER FAIR 63 39 42 SW7 29.70F GROTON SUNNY 61 48 62 SW16 29.69F WILLIMANTIC SUNNY 63 42 46 W9 29.68F IN RI CITY SKY/WX TMP DP RH WIND PRES REMARKS PROVIDENCE MOSUNNY 65 38 36 W13 29.68F BLOCK ISLAND SUNNY 63 46 55 W17 29.71F WESTERLY SUNNY 63 48 58 SW12G20 29.70F IN MA CITY SKY/WX TMP DP RH WIND PRES REMARKS BOSTON MOSUNNY 64 41 42 W8 29.64F WORCESTER SUNNY 57 38 48 W14 29.67F WESTFIELD PTSUNNY 66 43 43 W14 29.66F PROVINCETOWN SUNNY 64 9 11 SW9 29.65F NANTUCKET SUNNY 62 50 64 SW22 29.68F $$ ANZ330-335-338-340-345-350-353-355-251900- COASTAL MARINE OBSERVATIONS STATION/POSITION TIME SKY/WX TEMP WIND PRES VSBY WAVE AIR SEA DIR/SP/G HT/PER (UTC) (F) (DEG/KT/KT) (MB) (MI) (FT/S) NY HARB ENTRANCE NOT AVBL 4S FIRE IS 1800 62 N/A 3/ 3 20S FIRE ISLAND 1800 60 63 270/ 14/ 16 1007.4 3/ 4 23SW MTP 1800 N/A 2/ 9 HUDSON CANYON 1800 60 66 270/ 14/ 16 1008.5 3/ 5 EXECUTION ROCKS 1700 63 62 220/ 8/ 10 N/A WESTERN LI SOUND 1700 61 230/ 10/ 12 N/A 1/ 2 CENTRAL LI SOUND 1700 57 63 250/ 14/ 16 N/A 2/ 3 EASTERN LI SOUND 1700 60 62 240/ 16/ 19 N/A ROBBINS REEF 1800 63 280/ 10/ 12 1005.7 $$ >>>>>>>>>>>>>>>>>>>>>>>>>>>> KEY <<<<<<<<<<<<<<<<<<<<<<<<<<< > < > SKY/WX - SKY CONDITION/PRESENT WEATHER < > TMP - TEMPERATURE IN FAHRENHEIT < > DP - DEWPOINT IN FAHRENHEIT < > RH - RELATIVE HUMIDITY IN PERCENT < > WIND - DIRECTION AND SPEED IN MPH < > PRES - MEAN SEA LEVEL PRESSURE IN INCHES OF HG < > WCI - WIND CHILL INDEX < > VSB - VISIBILITY IN MILES < > HX - HEAT INDEX < > TC - TEMPERATURE IN CELSIUS < > VRB - VARIABLE WIND DIRECTION < > < >>>>>>>>>>>>>>>>>>>>>>>>>>>> KEY <<<<<<<<<<<<<<<<<<<<<<<<<<<

USA.gov is the U.S. government's official web portal to all federal, state and local government web resources and services.